UAL850 KLAX-VHHH

Flight info

Callsign UAL850
Flight time N/A
Altitude 28000
Route SUMMR2 MCKEY DCT LIBBO DCT BRINY DCT BOARS DCT AMAKR DCT LINUZ DCT 44N130W 50N140W/N0497F300 53N150W 55N160W 56N170W/N0498F320 56N180E DCT NIKLL/N0496F330 R220 NUBDA/N0491F340 R220 NODAN R217 ASTER Y514 SDE Y512 GTC Y142 SAMON Y14 STOUT/N0487F360 Y14 DGC V28 FUE Z40 IGMON A1 ELATO V522 ABBEY
Aircraft B77W/H-SDE1E2E3FGHIJ2J3J4J5M1RWXY/LB1D1

Departure

Time 2026-04-26 03:57
Airport Los Angeles International Airport (KLAX)

Arrival

Time N/A
Airport Hong Kong International Airport (VHHH)
Time Latitude Longitude Altitude Speed Heading
2026-04-26 03:21 33.93960 -118.40923 133 ft 0 kts 291°
2026-04-26 03:35 33.93958 -118.40916 133 ft 2 kts 291°
2026-04-26 03:35 33.93952 -118.40897 133 ft 2 kts 291°
2026-04-26 03:35 33.93946 -118.40879 133 ft 2 kts 291°
2026-04-26 03:36 33.93941 -118.40861 133 ft 2 kts 291°
2026-04-26 03:36 33.93940 -118.40859 133 ft 0 kts 291°
2026-04-26 03:38 33.93949 -118.40887 133 ft 4 kts 290°
2026-04-26 03:38 33.93956 -118.40910 133 ft 1 kts 290°
2026-04-26 03:38 33.93957 -118.40916 133 ft 0 kts 290°
2026-04-26 03:41 33.93957 -118.40915 133 ft 1 kts 290°
2026-04-26 03:41 33.93952 -118.40897 133 ft 2 kts 291°
2026-04-26 03:41 33.93946 -118.40878 133 ft 2 kts 291°
2026-04-26 03:41 33.93940 -118.40859 133 ft 2 kts 291°
2026-04-26 03:42 33.93936 -118.40845 133 ft 0 kts 291°
2026-04-26 03:42 33.93935 -118.40861 133 ft 4 kts 255°
2026-04-26 03:42 33.93931 -118.40878 133 ft 0 kts 252°
2026-04-26 03:42 33.93933 -118.40870 133 ft 2 kts 257°
2026-04-26 03:43 33.93938 -118.40852 133 ft 2 kts 239°
2026-04-26 03:43 33.93948 -118.40836 133 ft 2 kts 219°
2026-04-26 03:43 33.93961 -118.40826 133 ft 2 kts 204°
2026-04-26 03:43 33.93976 -118.40821 133 ft 2 kts 187°
2026-04-26 03:44 33.93988 -118.40820 133 ft 0 kts 174°
2026-04-26 03:44 33.93991 -118.40820 133 ft 0 kts 173°
2026-04-26 03:47 33.93984 -118.40820 133 ft 2 kts 173°
2026-04-26 03:47 33.93958 -118.40816 133 ft 5 kts 173°
2026-04-26 03:48 33.93917 -118.40815 133 ft 5 kts 188°
2026-04-26 03:48 33.93893 -118.40836 133 ft 4 kts 240°
2026-04-26 03:48 33.93879 -118.40874 133 ft 5 kts 250°
2026-04-26 03:48 33.93868 -118.40931 133 ft 7 kts 260°
2026-04-26 03:49 33.93859 -118.40996 133 ft 8 kts 263°
2026-04-26 03:49 33.93852 -118.41068 132 ft 8 kts 264°
2026-04-26 03:49 33.93846 -118.41138 133 ft 8 kts 263°
2026-04-26 03:49 33.93840 -118.41206 133 ft 7 kts 271°
2026-04-26 03:50 33.93857 -118.41258 132 ft 5 kts 320°
2026-04-26 03:50 33.93897 -118.41269 132 ft 6 kts 352°
2026-04-26 03:50 33.93958 -118.41278 130 ft 10 kts 353°
2026-04-26 03:50 33.94039 -118.41288 129 ft 12 kts 354°
2026-04-26 03:51 33.94132 -118.41303 127 ft 14 kts 353°
2026-04-26 03:51 33.94232 -118.41318 127 ft 14 kts 352°
2026-04-26 03:51 33.94336 -118.41335 126 ft 15 kts 353°
2026-04-26 03:51 33.94444 -118.41349 126 ft 15 kts 354°
2026-04-26 03:52 33.94551 -118.41364 126 ft 14 kts 354°
2026-04-26 03:52 33.94642 -118.41379 126 ft 11 kts 353°
2026-04-26 03:52 33.94715 -118.41389 127 ft 8 kts 354°
2026-04-26 03:52 33.94762 -118.41384 128 ft 5 kts 25°
2026-04-26 03:53 33.94781 -118.41357 129 ft 4 kts 68°
2026-04-26 03:53 33.94793 -118.41293 129 ft 10 kts 81°
2026-04-26 03:53 33.94808 -118.41177 130 ft 13 kts 82°
2026-04-26 03:53 33.94819 -118.41071 130 ft 11 kts 84°
2026-04-26 03:54 33.94828 -118.40974 129 ft 12 kts 83°
2026-04-26 03:54 33.94840 -118.40852 130 ft 16 kts 83°
2026-04-26 03:54 33.94857 -118.40694 127 ft 21 kts 83°
2026-04-26 03:54 33.94875 -118.40514 126 ft 20 kts 83°
2026-04-26 03:55 33.94891 -118.40351 123 ft 18 kts 83°
2026-04-26 03:55 33.94906 -118.40202 123 ft 16 kts 83°
2026-04-26 03:55 33.94920 -118.40075 121 ft 15 kts 83°
2026-04-26 03:55 33.94940 -118.39964 120 ft 10 kts 54°
2026-04-26 03:56 33.95005 -118.39928 118 ft 9 kts 353°
2026-04-26 03:56 33.95040 -118.39974 119 ft 5 kts 270°
2026-04-26 03:56 33.95034 -118.40014 120 ft 3 kts 262°
2026-04-26 03:56 33.95032 -118.40044 120 ft 7 kts 266°
2026-04-26 03:57 33.94991 -118.40440 125 ft 82 kts 263°
2026-04-26 03:57 33.94875 -118.41573 130 ft 158 kts 263°
2026-04-26 03:57 33.94710 -118.43225 362 ft 202 kts 265°
2026-04-26 03:57 33.94853 -118.44881 1139 ft 207 kts 294°